Date String (YYYY-MM-DD hh:mm:ss) UTC,Instrument flags,Ambient pressure (hPa),Sample flow (lpm),Bypass flow (lpm),Sample temperature (°C),Ambient temperature (°C),ASC tube jacket temperature (°C),LED temperature (°C),Box temperature (°C),Sample RH (%),Span deviation,Mass concentration (μg/m³),Mass concentration (μg/m³),Mass concentration (μg/m³)
DateTimeUTC,F1_M11,P_M11,Q1_M11,Q2_M11,T1_M11,T2_M11,T3_M11,T4_M11,T5_M11,U1_M11,ZSPAN_M11,X0_M11,X2_M11,X1_M11
2021-10-05 03:00:00,,0832.2,5.01,0.00,29.6,28.2,00.0,38.7,31.4,12.1,0000.1,0015.68,0004.55,0003.55
2021-10-05 03:01:00,,0832.2,4.99,0.00,29.6,28.4,00.0,38.7,31.4,12.1,0001.9,0015.81,0004.55,0003.54
2021-10-05 03:02:00,,0832.1,5.00,0.00,29.6,28.5,00.0,38.7,31.4,12.0,0000.2,0016.47,0004.55,0003.54
2021-10-05 03:03:00,,0832.2,5.00,0.00,29.7,28.6,00.0,38.7,31.5,12.0,0000.0,0017.67,0004.52,0003.54
2021-10-05 03:04:00,,0832.2,5.01,0.00,29.7,28.7,00.0,38.7,31.5,12.2,0000.0,0017.80,0004.52,0003.54
2021-10-05 03:05:00,,0832.2,5.00,0.00,29.7,28.7,00.0,38.7,31.5,12.0,0000.0,0017.67,0004.53,0003.55
2021-10-05 03:06:00,,0832.2,5.00,0.00,29.8,28.8,00.0,38.7,31.6,12.0,0000.0,0017.21,0004.50,0003.54
2021-10-05 03:07:00,,0832.2,5.00,0.00,29.8,28.8,00.0,38.8,31.6,11.9,0000.0,0015.76,0004.49,0003.53
2021-10-05 03:08:00,,0832.2,4.99,0.00,29.8,28.9,00.0,38.8,31.7,11.8,0000.0,0015.27,0004.50,0003.53
2021-10-05 03:09:00,,0832.1,5.00,0.00,29.8,28.9,00.0,38.8,31.7,11.8,0000.0,0015.01,0004.47,0003.55
2021-10-05 03:10:00,,0832.1,5.00,0.00,29.9,29.0,00.0,38.8,31.7,11.9,0000.0,0014.65,0004.44,0003.55
2021-10-05 03:11:00,,0832.2,5.00,0.00,29.9,29.0,00.0,38.8,31.7,11.9,0000.0,0015.06,0004.44,0003.55
2021-10-05 03:12:00,,0832.2,5.00,0.00,29.9,29.1,00.0,38.9,31.7,11.8,0000.0,0015.40,0004.48,0003.55
2021-10-05 03:13:00,,0832.2,5.00,0.00,29.9,29.1,00.0,38.9,31.8,11.9,0000.0,0014.52,0004.46,0003.54
2021-10-05 03:14:00,,0832.2,5.00,0.00,30.0,29.1,00.0,38.9,31.8,11.9,0000.0,0012.91,0004.44,0003.54
2021-10-05 03:15:00,,0832.2,5.01,0.00,30.0,28.7,00.0,38.9,31.7,11.7,0001.3,0012.26,0004.43,0003.53
2021-10-05 03:16:00,,0832.2,5.00,0.00,29.8,26.6,00.0,38.9,31.1,11.8,0002.0,0012.12,0004.39,0003.52
2021-10-05 03:17:00,,0832.2,4.99,0.00,29.7,26.1,00.0,38.9,30.9,11.9,0000.4,0013.10,0004.42,0003.53
2021-10-05 03:18:00,,0832.2,5.00,0.00,29.6,26.4,00.0,38.8,31.0,12.0,0000.0,0013.07,0004.41,0003.53
2021-10-05 03:19:00,,0832.2,5.01,0.00,29.6,26.8,00.0,38.8,31.1,12.0,0000.0,0013.04,0004.38,0003.53
2021-10-05 03:20:00,,0832.2,5.00,0.00,29.5,27.2,00.0,38.7,31.1,12.0,0000.9,0013.04,0004.38,0003.51
2021-10-05 03:21:00,,0832.2,5.01,0.00,29.5,27.5,00.0,38.7,31.2,11.9,0000.0,0012.83,0004.38,0003.50
2021-10-05 03:22:00,,0832.2,4.99,0.00,29.5,27.8,00.0,38.7,31.2,11.9,0000.0,0011.79,0004.31,0003.49
2021-10-05 03:23:00,,0832.2,5.00,0.00,29.6,28.0,00.0,38.7,31.3,11.9,0000.0,0011.50,0004.26,0003.50
2021-10-05 03:24:00,,0832.2,5.01,0.00,29.6,28.1,00.0,38.7,31.3,11.9,0001.7,0011.44,0004.26,0003.49
2021-10-05 03:25:00,,0832.2,5.00,0.00,29.6,28.3,00.0,38.7,31.4,11.9,0000.6,0010.99,0004.24,0003.50
2021-10-05 03:26:00,,0832.2,5.00,0.00,29.6,28.4,00.0,38.7,31.4,11.9,0000.0,0010.54,0004.26,0003.50
2021-10-05 03:27:00,,0832.2,5.00,0.00,29.7,28.5,00.0,38.7,31.5,11.9,0000.0,0010.49,0004.28,0003.51
2021-10-05 03:28:00,,0832.2,4.99,0.00,29.7,28.6,00.0,38.7,31.5,11.9,0000.5,0009.74,0004.25,0003.52
2021-10-05 03:29:00,,0832.2,5.00,0.00,29.7,28.7,00.0,38.7,31.5,11.9,0003.0,0009.77,0004.26,0003.54
2021-10-05 03:30:00,,0832.2,4.99,0.00,29.7,28.7,00.0,38.7,31.5,11.8,0003.0,0009.66,0004.23,0003.53
2021-10-05 03:31:00,,0832.2,5.00,0.00,29.8,28.8,00.0,38.7,31.5,11.8,0002.6,0010.48,0004.17,0003.52
2021-10-05 03:32:00,,0832.2,5.00,0.00,29.8,28.8,00.0,38.8,31.6,11.8,0002.7,0010.37,0004.16,0003.52
2021-10-05 03:33:00,,0832.2,4.99,0.00,29.8,28.9,00.0,38.8,31.6,11.8,0003.1,0010.33,0004.16,0003.52
2021-10-05 03:34:00,,0832.2,5.01,0.00,29.8,28.9,00.0,38.8,31.7,11.7,0003.2,0010.38,0004.20,0003.54
2021-10-05 03:35:00,,0832.2,5.01,0.00,29.9,28.9,00.0,38.8,31.7,11.7,0002.6,0010.63,0004.24,0003.55
2021-10-05 03:36:00,,0832.3,5.00,0.00,29.9,28.9,00.0,38.8,31.7,11.7,0001.6,0010.73,0004.27,0003.56
2021-10-05 03:37:00,,0832.3,4.99,0.00,29.9,29.0,00.0,38.9,31.7,11.7,0000.9,0010.66,0004.24,0003.56
2021-10-05 03:38:00,,0832.2,5.00,0.00,29.9,29.0,00.0,38.9,31.8,11.7,0001.3,0010.21,0004.24,0003.56
2021-10-05 03:39:00,,0832.3,5.01,0.00,30.0,29.0,00.0,38.9,31.8,11.7,0000.8,0010.41,0004.26,0003.55
2021-10-05 03:40:00,,0832.2,4.99,0.00,30.0,29.0,00.0,38.9,31.7,11.6,0000.0,0010.68,0004.29,0003.55
2021-10-05 03:41:00,,0832.2,5.00,0.00,30.0,29.1,00.0,38.9,31.8,11.6,0000.0,0010.87,0004.37,0003.57
2021-10-05 03:42:00,,0832.3,4.99,0.00,30.0,29.1,00.0,39.0,31.8,11.6,0000.0,0009.96,0004.40,0003.57
2021-10-05 03:43:00,,0832.2,5.00,0.00,30.0,29.0,00.0,39.0,31.8,11.6,0000.0,0010.15,0004.40,0003.58
2021-10-05 03:44:00,,0832.2,5.00,0.00,30.0,27.1,00.0,39.0,31.3,11.6,0000.0,0010.95,0004.44,0003.59
2021-10-05 03:45:00,,0832.3,5.01,0.00,29.8,26.1,00.0,38.9,31.0,11.7,0000.0,0011.16,0004.46,0003.60
2021-10-05 03:46:00,,0832.2,5.00,0.00,29.7,26.2,00.0,38.9,31.0,11.7,0000.0,0011.70,0004.46,0003.60
2021-10-05 03:47:00,,0832.3,4.99,0.00,29.6,26.7,00.0,38.9,31.1,11.8,0000.0,0012.06,0004.45,0003.59
2021-10-05 03:48:00,,0832.3,5.01,0.00,29.6,27.1,00.0,38.8,31.1,11.8,0000.0,0012.60,0004.49,0003.60
2021-10-05 03:49:00,,0832.3,5.00,0.00,29.6,27.4,00.0,38.8,31.2,11.8,0000.0,0013.63,0004.45,0003.58
2021-10-05 03:50:00,,0832.3,5.01,0.00,29.6,27.7,00.0,38.8,31.2,11.9,0000.0,0013.01,0004.42,0003.58
2021-10-05 03:51:00,,0832.3,5.00,0.00,29.6,27.9,00.0,38.7,31.2,11.8,0000.7,0013.55,0004.41,0003.57
2021-10-05 03:52:00,,0832.2,5.01,0.00,29.6,28.1,00.0,38.7,31.3,11.8,0001.6,0013.94,0004.39,0003.58
2021-10-05 03:53:00,,0832.2,5.00,0.00,29.6,28.2,00.0,38.7,31.3,11.7,0001.8,0014.59,0004.42,0003.58
2021-10-05 03:54:00,,0832.3,5.00,0.00,29.6,28.3,00.0,38.7,31.4,11.7,0000.6,0014.31,0004.45,0003.59
2021-10-05 03:55:00,,0832.3,5.01,0.00,29.6,28.4,00.0,38.7,31.4,11.8,0000.8,0013.50,0004.41,0003.57
2021-10-05 03:56:00,,0832.2,5.00,0.00,29.7,28.5,00.0,38.7,31.4,11.9,0002.1,0013.57,0004.36,0003.56
2021-10-05 03:57:00,,0832.3,4.99,0.00,29.7,28.6,00.0,38.7,31.4,11.9,0002.5,0013.21,0004.32,0003.55
2021-10-05 03:58:00,,0832.2,5.00,0.00,29.7,28.7,00.0,38.8,31.5,11.9,0002.7,0012.93,0004.33,0003.55
2021-10-05 03:59:00,,0832.2,4.99,0.00,29.7,28.7,00.0,38.8,31.5,11.9,0002.3,0013.00,0004.30,0003.55
